This is the latest recevied weather packets stored in our database for station/object W8XLR-2. If no packets are shown the sender has not sent any weather packets the latest 10 day(s).
| Time | Temp. | Humidity | Pressure | Rain* | Wind** | Luminosity | Snow |
|---|---|---|---|---|---|---|---|
| 1777988808 | 16.11° C | 80% | 1010 hPa | 0.25 mm | - | - | - |
| 1777988215 | 15.56° C | 83% | 1010 hPa | 0.25 mm | - | - | - |
| 1777987607 | 15.56° C | 81% | 1009.7 hPa | 0 mm | - | - | - |
| 1777987014 | 15.56° C | 81% | 1009.7 hPa | 0 mm | - | - | - |
| 1777986408 | 16.67° C | 76% | 1009.8 hPa | 0 mm | - | - | - |
| 1777985809 | 17.22° C | 72% | 1009.7 hPa | 0 mm | - | - | - |
| 1777985323 | 17.22° C | 72% | 1009.7 hPa | 0 mm | - | - | - |
| 1777985209 | 17.22° C | 72% | 1009.7 hPa | 0 mm | - | - | - |
| 1777984608 | 17.22° C | 71% | 1009.8 hPa | 0 mm | - | - | - |
| 1777984008 | 17.22° C | 70% | 1009.6 hPa | 0 mm | - | - | - |
| 1777983407 | 17.22° C | 70% | 1009.6 hPa | 0 mm | - | - | - |
| 1777982813 | 17.22° C | 71% | 1009.5 hPa | 0 mm | - | - | - |
| 1777982208 | 16.67° C | 71% | 1009.5 hPa | 0 mm | - | - | - |
| 1777981608 | 16.67° C | 71% | 1009.5 hPa | 0 mm | - | - | - |
| 1777981010 | 16.67° C | 71% | 1009.5 hPa | 0 mm | - | - | - |
| 1777980496 | 16.67° C | 70% | 1009.3 hPa | 0 mm | - | - | - |
| 1777980410 | 16.67° C | 70% | 1009.3 hPa | 0 mm | - | - | - |
| 1777979872 | 16.67° C | 70% | 1009.3 hPa | 0 mm | - | - | - |
| 1777979809 | 16.67° C | 70% | 1009.3 hPa | 0 mm | - | - | - |
| 1777979208 | 17.22° C | 70% | 1009.3 hPa | 0 mm | - | - | - |
| 1777978607 | 17.22° C | 70% | 1008.9 hPa | 0 mm | - | - | - |
| 1777978007 | 17.22° C | 70% | 1008.9 hPa | 0 mm | - | - | - |
| 1777977408 | 17.22° C | 70% | 1008.7 hPa | 0 mm | - | - | - |
| 1777976807 | 17.22° C | 69% | 1008.5 hPa | 0 mm | - | - | - |
| 1777976209 | 17.22° C | 69% | 1008.5 hPa | 0 mm | - | - | - |
* Rain latest hour (hover to see other rain measurements)
** Current wind speed in m/s (hover to see current wind gust speed)